Погода в Березайке

Россия / Тверская область     57°59′16″N   33°54′09″E
темп.,
°C
ветер,
м/с
пор.,
м/с
влажн.,
%
обл.,
%
осадки,
мм/ч
давл.,
гПа
погр.,
м
23 июня, ср
ср2300:00+21ю377356 0.0 1018125
03:00+19ю23805 0.0 101952
06:00+21ю25794 0.0 1019141
09:00+28ююз24533 0.0 1019532
12:00+33ююз46330 0.0 10192070
15:00+34ююз46260 0.0 10182543
18:00+33ююз35330 0.0 10181007
21:00+25ююз39590 0.0 1018154
24 июня, чт
чт2400:00+23ююз312709 0.0 1018269
03:00+21юз25760 0.0 101990
06:00+22юз39765 0.0 1019233
09:00+28юз35540 0.0 1018740
12:00+32зюз46390 0.0 10182221
15:00+34з453320 0.0 10172693
18:00+28ю5757100 1.1 1016564
21:00+18юз2692100 6.6 1018135
25 июня, пт
пт2500:00+19з2682100 0.1 1017184
03:00+18юв228893 0.1 101842
06:00+19ю24845 0.0 1017139
09:00+26юз12555 0.0 1017487
12:00+31ю12405 0.0 10161367
15:00+33ю243542 0.0 10142692
18:00+18юз61293100 6.1 1015345
21:00+18ююв2596100 8.9 1015199
26 июня, сб
сб2600:00+17ююз389699 0.0 1014174
03:00+17ю249715 0.1 1013103
06:00+18ююв249456 0.0 1013139
09:00+24ююз24725 0.0 1013508
12:00+29ююз355254 0.0 10121447
15:00+31юз354284 0.0 10112007
18:00+30зюз24455 0.0 10101864
21:00+20юз4973100 0.7 1011174
27 июня, вс
вс2700:00+18зюз259197 0.2 1012114
03:00+17з119198 0.2 101211
06:00+19ю23887 0.0 1012134
09:00+25ююз236616 0.0 1012576
12:00+30ю234926 0.0 10111393
15:00+32юз253866 0.0 10112612
18:00+30вюв225190 0.0 1010413
21:00+21ссв489499 1.9 1011201